Voltar ao catálogo

DELTA 1 R/B(2)

AtivoHEO
NORAD 2643·ROCKET BODY·🇺🇸 United States

Lançado Jan 11, 1967 de Cape Canaveral Space Force Station

Loading…

Próximas Passagens (próximas 24 horas)

TLE

AtualizadoSource: Space-Track

Época: Sep 14, 2026, 00:44 UTC

1 02643U 67001D   26257.03122698  .00010598  00000-0  21313-2 0  9997
2 02643  25.6522 128.9118 5898753 131.9332 296.1139  4.19164811760050

Acompanhe DELTA 1 R/B(2) em tempo real com AllMySat

Download on the App Store